QPF
0.08 0.10 0.14 0.19 0.21 0.23 0.20 0.16 0.15 0.14 0.12 0.10 0.07 0.04 0.04 0.05 0.07 0.04 0.05 0.06 0.04 0.02 0.01 0.01 0.01 0.02 0.02 0.01 0.02 0.02 0.02 0.02 0.01 0.01 0.01 0.01 0.01 0.01
0.07 0.08 0.10 0.12 0.15 0.19 0.19 0.17 0.14 0.13 0.13 0.11 0.09 0.06 0.05 0.06 0.08 0.05 0.07 0.09 0.06 0.04 0.02 0.02 0.02 0.02 0.02 0.01 0.01 0.01 0.01 0.01 0.00 0.00 0.00 0.01 0.01 0.01
0.09 0.08 0.09 0.11 0.13 0.15 0.19 0.22 0.19 0.15 0.12 0.10 0.08 0.06 0.05 0.07 0.06 0.06 0.07 0.06 0.05 0.06 0.05 0.03 0.03 0.02 0.01 0.01 0.01 0.01 0.00 0.00 0.00 0.00 0.01 0.01 0.01 0.01
0.08 0.09 0.10 0.11 0.12 0.14 0.17 0.21 0.24 0.21 0.15 0.12 0.10 0.07 0.06 0.07 0.06 0.07 0.07 0.06 0.06 0.08 0.07 0.06 0.06 0.04 0.02 0.01 0.01 0.01 0.01 0.01 0.01 0.01 0.01 0.01 0.00 0.01
0.07 0.09 0.09 0.11 0.10 0.10 0.13 0.16 0.20 0.23 0.22 0.18 0.16 0.13 0.11 0.10 0.10 0.10 0.09 0.08 0.08 0.09 0.09 0.08 0.08 0.07 0.04 0.02 0.01 0.01 0.01 0.01 0.01 0.01 0.01 0.01 0.01 0.01
0.04 0.06 0.08 0.10 0.13 0.11 0.09 0.11 0.16 0.21 0.26 0.25 0.22 0.23 0.20 0.16 0.16 0.17 0.18 0.17 0.15 0.11 0.10 0.09 0.09 0.08 0.06 0.04 0.03 0.03 0.03 0.03 0.02 0.02 0.02 0.01 0.01 0.01
0.04 0.04 0.06 0.08 0.10 0.13 0.12 0.10 0.12 0.16 0.20 0.26 0.27 0.28 0.29 0.24 0.18 0.15 0.15 0.18 0.21 0.19 0.15 0.12 0.09 0.07 0.06 0.06 0.05 0.04 0.04 0.03 0.03 0.03 0.03 0.02 0.02 0.01
0.05 0.05 0.06 0.08 0.09 0.08 0.10 0.12 0.13 0.15 0.17 0.20 0.22 0.25 0.28 0.27 0.23 0.20 0.17 0.17 0.18 0.15 0.12 0.12 0.09 0.08 0.06 0.05 0.06 0.05 0.04 0.03 0.02 0.02 0.02 0.02 0.01 0.01
0.04 0.05 0.06 0.06 0.10 0.11 0.10 0.11 0.12 0.14 0.17 0.19 0.19 0.18 0.21 0.24 0.22 0.22 0.20 0.16 0.14 0.13 0.12 0.13 0.11 0.10 0.08 0.07 0.07 0.05 0.04 0.03 0.03 0.02 0.02 0.02 0.01 0.01
0.05 0.05 0.06 0.08 0.10 0.14 0.14 0.13 0.14 0.13 0.14 0.17 0.18 0.19 0.19 0.21 0.23 0.22 0.20 0.17 0.15 0.13 0.10 0.11 0.09 0.08 0.08 0.08 0.08 0.06 0.04 0.03 0.03 0.02 0.02 0.01 0.01 0.01
0.03 0.05 0.07 0.09 0.09 0.16 0.21 0.19 0.18 0.16 0.15 0.17 0.19 0.22 0.24 0.24 0.25 0.23 0.19 0.16 0.14 0.12 0.08 0.07 0.07 0.05 0.05 0.06 0.05 0.04 0.03 0.02 0.02 0.01 0.01 0.01 0.01 0.01
0.05 0.07 0.09 0.12 0.12 0.14 0.21 0.22 0.19 0.17 0.14 0.14 0.17 0.22 0.24 0.25 0.25 0.20 0.15 0.12 0.11 0.10 0.07 0.05 0.05 0.05 0.06 0.05 0.04 0.03 0.02 0.02 0.01 0.01 0.01 0.01 0.01 0.01
0.07 0.08 0.11 0.15 0.19 0.19 0.21 0.21 0.20 0.19 0.18 0.16 0.15 0.18 0.21 0.23 0.22 0.19 0.15 0.12 0.10 0.07 0.05 0.04 0.04 0.04 0.04 0.04 0.04 0.04 0.03 0.02 0.02 0.02 0.01 0.02 0.01 0.01
0.11 0.11 0.12 0.18 0.23 0.25 0.23 0.21 0.20 0.20 0.22 0.20 0.16 0.14 0.16 0.18 0.18 0.15 0.12 0.12 0.12 0.09 0.06 0.04 0.04 0.04 0.03 0.03 0.03 0.04 0.04 0.03 0.02 0.01 0.01 0.01 0.01 0.01
0.13 0.12 0.14 0.21 0.24 0.25 0.25 0.22 0.18 0.17 0.19 0.21 0.17 0.13 0.14 0.14 0.13 0.11 0.10 0.09 0.09 0.08 0.06 0.04 0.04 0.04 0.04 0.03 0.02 0.01 0.02 0.02 0.01 0.01 0.01 0.00 0.00 0.00
0.09 0.09 0.13 0.19 0.22 0.22 0.21 0.22 0.20 0.18 0.18 0.17 0.15 0.14 0.15 0.13 0.11 0.09 0.07 0.07 0.07 0.05 0.05 0.05 0.05 0.04 0.04 0.04 0.02 0.01 0.01 0.01 0.01 0.00 0.00 0.00 0.00 0.00
0.07 0.08 0.10 0.12 0.15 0.16 0.14 0.17 0.18 0.15 0.15 0.14 0.12 0.13 0.13 0.12 0.10 0.08 0.07 0.05 0.04 0.04 0.05 0.06 0.06 0.06 0.06 0.05 0.03 0.01 0.01 0.00 0.00 0.00 0.00 0.00 0.00 0.00
0.04 0.06 0.08 0.09 0.08 0.09 0.10 0.11 0.11 0.10 0.10 0.10 0.09 0.09 0.10 0.10 0.09 0.06 0.06 0.05 0.03 0.02 0.03 0.04 0.05 0.05 0.06 0.05 0.02 0.01 0.01 0.00 0.00 0.00 0.00 0.00 0.00 0.00
0.02 0.03 0.04 0.04 0.03 0.04 0.06 0.06 0.05 0.06 0.07 0.06 0.05 0.06 0.07 0.08 0.10 0.07 0.06 0.04 0.03 0.02 0.02 0.02 0.03 0.03 0.03 0.02 0.01 0.00 0.00 0.00 0.00 0.00 0.00 0.00 0.00 0.00
0.01 0.01 0.01 0.02 0.02 0.02 0.02 0.02 0.02 0.03 0.05 0.03 0.03 0.04 0.03 0.06 0.08 0.08 0.05 0.03 0.02 0.02 0.02 0.01 0.02 0.02 0.01 0.01 0.00 0.00 0.00 0.00 0.00 0.00 0.00 0.00 0.00 0.00
0.00 0.01 0.00 0.00 0.01 0.01 0.01 0.01 0.01 0.01 0.03 0.04 0.03 0.02 0.02 0.02 0.04 0.05 0.05 0.03 0.02 0.02 0.01 0.01 0.00 0.01 0.01 0.00 0.00 0.00 0.00 0.00 0.00 0.00 0.00 0.00 0.00 0.00
0.00 0.00 0.00 0.00 0.00 0.00 0.01 0.01 0.00 0.01 0.02 0.02 0.02 0.01 0.01 0.01 0.01 0.01 0.01 0.01 0.01 0.01 0.00 0.00 0.00 0.00 0.00 0.00 0.00 0.00 0.00 0.00 0.00 0.00 0.00 0.00 0.00 0.00
0.00 0.00 0.00 0.00 0.00 0.00 0.01 0.01 0.01 0.01 0.01 0.01 0.01 0.01 0.01 0.01 0.00 0.00 0.00 0.00 0.00 0.00 0.00 0.00 0.00 0.00 0.00 0.00 0.00 0.00 0.00 0.00 0.00 0.00 0.00 0.00 0.00 0.00
MSLP
1010.85 1010.97 1011.17 1011.43 1011.70 1011.97 1012.20 1012.38 1012.51 1012.58 1012.61 1012.63 1012.65 1012.70 1012.81 1012.99 1013.26 1013.60 1014.02 1014.51 1015.05 1015.60 1016.16 1016.70 1017.20 1017.66 1018.06 1018.41 1018.72 1019.00 1019.26 1019.51 1019.74 1019.96 1020.17 1020.35 1020.51 1020.64
1010.38 1010.38 1010.48 1010.66 1010.90 1011.16 1011.44 1011.70 1011.93 1012.12 1012.27 1012.39 1012.49 1012.60 1012.72 1012.89 1013.11 1013.39 1013.75 1014.17 1014.65 1015.17 1015.71 1016.25 1016.77 1017.25 1017.69 1018.09 1018.44 1018.77 1019.06 1019.34 1019.61 1019.86 1020.09 1020.30 1020.49 1020.65
1009.98 1009.88 1009.88 1009.98 1010.16 1010.42 1010.72 1011.03 1011.35 1011.65 1011.92 1012.16 1012.36 1012.54 1012.71 1012.88 1013.09 1013.34 1013.64 1014.01 1014.44 1014.91 1015.41 1015.93 1016.44 1016.94 1017.39 1017.81 1018.20 1018.55 1018.88 1019.19 1019.49 1019.77 1020.04 1020.30 1020.53 1020.74
1009.66 1009.48 1009.40 1009.42 1009.54 1009.76 1010.06 1010.41 1010.80 1011.18 1011.56 1011.90 1012.20 1012.46 1012.69 1012.90 1013.12 1013.36 1013.64 1013.98 1014.37 1014.81 1015.29 1015.78 1016.28 1016.77 1017.23 1017.65 1018.05 1018.42 1018.77 1019.10 1019.43 1019.76 1020.07 1020.37 1020.65 1020.90
1009.43 1009.19 1009.03 1008.97 1009.03 1009.20 1009.47 1009.82 1010.23 1010.67 1011.11 1011.52 1011.91 1012.24 1012.54 1012.81 1013.08 1013.35 1013.65 1013.99 1014.39 1014.82 1015.30 1015.79 1016.28 1016.76 1017.22 1017.64 1018.04 1018.42 1018.78 1019.13 1019.48 1019.84 1020.19 1020.53 1020.85 1021.15
1009.25 1008.96 1008.73 1008.60 1008.59 1008.69 1008.90 1009.21 1009.60 1010.04 1010.50 1010.96 1011.39 1011.79 1012.16 1012.50 1012.83 1013.17 1013.53 1013.93 1014.37 1014.86 1015.37 1015.89 1016.41 1016.90 1017.37 1017.80 1018.20 1018.57 1018.94 1019.30 1019.66 1020.03 1020.40 1020.77 1021.12 1021.45
1009.08 1008.74 1008.46 1008.26 1008.16 1008.18 1008.31 1008.55 1008.87 1009.26 1009.70 1010.15 1010.60 1011.04 1011.46 1011.87 1012.29 1012.73 1013.19 1013.70 1014.24 1014.82 1015.41 1016.00 1016.58 1017.12 1017.61 1018.07 1018.48 1018.86 1019.22 1019.59 1019.96 1020.33 1020.71 1021.09 1021.45 1021.79
1008.87 1008.49 1008.16 1007.89 1007.71 1007.63 1007.66 1007.80 1008.03 1008.34 1008.71 1009.12 1009.55 1010.00 1010.47 1010.95 1011.46 1012.01 1012.60 1013.24 1013.93 1014.64 1015.35 1016.06 1016.72 1017.34 1017.89 1018.38 1018.82 1019.22 1019.59 1019.95 1020.32 1020.69 1021.07 1021.44 1021.79 1022.11
1008.58 1008.18 1007.80 1007.47 1007.21 1007.04 1006.97 1007.00 1007.12 1007.33 1007.61 1007.96 1008.35 1008.80 1009.28 1009.82 1010.42 1011.08 1011.81 1012.60 1013.44 1014.30 1015.16 1015.99 1016.77 1017.48 1018.11 1018.66 1019.14 1019.56 1019.95 1020.32 1020.69 1021.05 1021.41 1021.76 1022.08 1022.37
1008.24 1007.80 1007.39 1007.01 1006.68 1006.44 1006.28 1006.22 1006.25 1006.36 1006.56 1006.84 1007.18 1007.61 1008.10 1008.68 1009.35 1010.11 1010.95 1011.87 1012.84 1013.84 1014.84 1015.79 1016.68 1017.49 1018.20 1018.82 1019.35 1019.81 1020.23 1020.61 1020.97 1021.32 1021.66 1021.98 1022.27 1022.52
1007.86 1007.40 1006.96 1006.55 1006.19 1005.90 1005.69 1005.57 1005.53 1005.58 1005.72 1005.94 1006.24 1006.64 1007.14 1007.75 1008.46 1009.28 1010.20 1011.21 1012.27 1013.37 1014.45 1015.50 1016.47 1017.35 1018.13 1018.80 1019.38 1019.88 1020.32 1020.72 1021.09 1021.43 1021.76 1022.04 1022.30 1022.51
1007.52 1007.05 1006.60 1006.18 1005.81 1005.51 1005.28 1005.14 1005.08 1005.10 1005.21 1005.40 1005.69 1006.08 1006.58 1007.19 1007.91 1008.76 1009.71 1010.74 1011.84 1012.97 1014.08 1015.16 1016.16 1017.07 1017.88 1018.59 1019.20 1019.72 1020.19 1020.61 1020.99 1021.33 1021.64 1021.91 1022.13 1022.31
1007.28 1006.81 1006.36 1005.95 1005.60 1005.32 1005.11 1004.99 1004.94 1004.98 1005.10 1005.30 1005.59 1005.98 1006.48 1007.08 1007.80 1008.63 1009.56 1010.56 1011.63 1012.72 1013.80 1014.84 1015.81 1016.69 1017.49 1018.19 1018.80 1019.35 1019.83 1020.26 1020.65 1021.00 1021.30 1021.56 1021.77 1021.92
1007.20 1006.72 1006.28 1005.90 1005.59 1005.35 1005.19 1005.11 1005.11 1005.19 1005.35 1005.59 1005.91 1006.32 1006.81 1007.41 1008.10 1008.88 1009.75 1010.68 1011.66 1012.65 1013.63 1014.57 1015.45 1016.26 1017.00 1017.66 1018.24 1018.77 1019.25 1019.69 1020.09 1020.45 1020.76 1021.02 1021.22 1021.37
1007.26 1006.80 1006.39 1006.04 1005.76 1005.57 1005.46 1005.44 1005.50 1005.64 1005.86 1006.15 1006.51 1006.94 1007.44 1008.03 1008.68 1009.41 1010.19 1011.01 1011.87 1012.72 1013.56 1014.36 1015.12 1015.82 1016.46 1017.04 1017.58 1018.08 1018.55 1018.98 1019.38 1019.75 1020.07 1020.34 1020.55 1020.71
1007.46 1007.02 1006.64 1006.32 1006.07 1005.92 1005.86 1005.89 1006.00 1006.19 1006.46 1006.79 1007.19 1007.65 1008.17 1008.74 1009.36 1010.03 1010.72 1011.44 1012.16 1012.87 1013.56 1014.21 1014.82 1015.39 1015.92 1016.42 1016.89 1017.35 1017.79 1018.21 1018.61 1018.98 1019.31 1019.60 1019.82 1020.00
1007.72 1007.32 1006.96 1006.67 1006.45 1006.32 1006.28 1006.33 1006.47 1006.70 1006.99 1007.36 1007.79 1008.27 1008.80 1009.36 1009.96 1010.57 1011.20 1011.82 1012.43 1013.01 1013.56 1014.08 1014.56 1015.01 1015.44 1015.85 1016.26 1016.66 1017.07 1017.47 1017.86 1018.24 1018.58 1018.87 1019.11 1019.31
1007.94 1007.59 1007.27 1007.00 1006.80 1006.67 1006.64 1006.68 1006.82 1007.05 1007.35 1007.72 1008.16 1008.64 1009.17 1009.73 1010.31 1010.89 1011.47 1012.03 1012.56 1013.06 1013.52 1013.93 1014.32 1014.68 1015.03 1015.37 1015.72 1016.08 1016.45 1016.84 1017.22 1017.58 1017.92 1018.22 1018.48 1018.69
1008.02 1007.74 1007.47 1007.23 1007.04 1006.92 1006.87 1006.90 1007.01 1007.21 1007.49 1007.85 1008.27 1008.74 1009.26 1009.81 1010.38 1010.94 1011.50 1012.03 1012.52 1012.97 1013.38 1013.75 1014.08 1014.39 1014.69 1014.99 1015.30 1015.63 1015.98 1016.33 1016.69 1017.05 1017.38 1017.67 1017.93 1018.15
1007.89 1007.69 1007.48 1007.29 1007.13 1007.01 1006.96 1006.97 1007.05 1007.22 1007.46 1007.78 1008.17 1008.62 1009.11 1009.65 1010.20 1010.76 1011.30 1011.82 1012.31 1012.76 1013.16 1013.51 1013.84 1014.13 1014.42 1014.70 1015.00 1015.30 1015.62 1015.95 1016.29 1016.62 1016.93 1017.21 1017.46 1017.68
1007.49 1007.39 1007.26 1007.14 1007.02 1006.94 1006.90 1006.90 1006.97 1007.11 1007.32 1007.60 1007.95 1008.36 1008.82 1009.33 1009.86 1010.41 1010.95 1011.48 1011.97 1012.43 1012.85 1013.23 1013.57 1013.88 1014.18 1014.46 1014.75 1015.04 1015.34 1015.65 1015.95 1016.25 1016.53 1016.79 1017.02 1017.22
1006.82 1006.81 1006.78 1006.75 1006.71 1006.69 1006.69 1006.73 1006.81 1006.95 1007.14 1007.40 1007.71 1008.08 1008.51 1008.98 1009.48 1010.01 1010.54 1011.06 1011.57 1012.05 1012.49 1012.90 1013.27 1013.61 1013.92 1014.22 1014.51 1014.79 1015.07 1015.35 1015.62 1015.88 1016.12 1016.34 1016.54 1016.71
1005.90 1005.98 1006.05 1006.12 1006.19 1006.26 1006.35 1006.46 1006.60 1006.76 1006.97 1007.22 1007.51 1007.86 1008.24 1008.67 1009.13 1009.63 1010.13 1010.64 1011.15 1011.64 1012.10 1012.53 1012.93 1013.29 1013.63 1013.93 1014.22 1014.49 1014.74 1014.99 1015.22 1015.43 1015.63 1015.81 1015.97 1016.11
Thickness
5687 5691 5694 5698 5700 5703 5705 5705 5703 5703 5709 5718 5723 5729 5732 5733 5733 5732 5734 5731 5729 5727 5725 5724 5722 5720 5719 5717 5714 5712 5710 5707 5705 5702 5700 5697 5694 5691
5679 5683 5688 5692 5695 5698 5700 5702 5703 5703 5704 5713 5716 5722 5725 5728 5727 5729 5730 5728 5725 5723 5722 5720 5718 5716 5714 5712 5710 5707 5705 5702 5700 5697 5695 5692 5689 5686
5673 5677 5681 5685 5688 5691 5694 5696 5698 5699 5700 5705 5709 5714 5717 5720 5721 5722 5723 5722 5720 5719 5717 5715 5713 5711 5709 5707 5704 5702 5699 5697 5694 5692 5689 5687 5684 5681
5665 5670 5675 5679 5682 5685 5688 5691 5693 5695 5696 5697 5700 5704 5709 5713 5714 5715 5716 5716 5715 5713 5711 5710 5708 5706 5703 5701 5699 5696 5694 5692 5689 5686 5684 5681 5678 5675
5659 5664 5668 5672 5676 5679 5682 5685 5688 5690 5692 5692 5694 5697 5700 5703 5705 5706 5707 5707 5707 5706 5704 5702 5701 5699 5697 5694 5692 5690 5688 5685 5683 5680 5678 5675 5672 5669
5654 5658 5662 5666 5670 5673 5677 5680 5682 5683 5685 5687 5688 5691 5692 5695 5697 5697 5697 5698 5698 5698 5697 5695 5693 5691 5689 5687 5685 5683 5681 5679 5676 5674 5671 5669 5666 5663
5649 5653 5657 5660 5664 5668 5672 5675 5676 5678 5679 5681 5683 5684 5686 5687 5690 5691 5690 5689 5688 5689 5688 5687 5685 5683 5681 5679 5677 5675 5673 5671 5669 5667 5665 5662 5660 5657
5643 5648 5652 5655 5658 5660 5664 5668 5672 5674 5675 5677 5678 5680 5683 5685 5685 5685 5684 5682 5679 5680 5680 5677 5677 5676 5674 5672 5670 5668 5666 5664 5662 5660 5658 5656 5654 5651
5639 5643 5647 5652 5653 5658 5660 5662 5666 5669 5672 5675 5676 5678 5679 5681 5680 5679 5679 5678 5676 5674 5672 5668 5667 5667 5666 5664 5662 5661 5659 5657 5655 5653 5651 5650 5648 5645
5636 5639 5642 5646 5650 5652 5656 5659 5663 5666 5669 5672 5674 5676 5677 5676 5676 5675 5673 5669 5666 5664 5665 5660 5658 5658 5657 5656 5654 5653 5652 5650 5648 5647 5645 5644 5641 5639
5633 5635 5638 5641 5643 5645 5650 5654 5657 5660 5662 5665 5668 5670 5670 5670 5670 5667 5664 5661 5657 5655 5656 5656 5652 5649 5648 5648 5646 5645 5645 5643 5642 5640 5639 5637 5635 5633
5630 5632 5633 5635 5638 5640 5645 5649 5651 5654 5657 5659 5661 5662 5663 5663 5663 5663 5662 5658 5656 5651 5651 5651 5647 5645 5641 5640 5640 5639 5638 5636 5635 5634 5633 5632 5630 5630
5627 5630 5632 5632 5635 5637 5640 5645 5648 5649 5651 5653 5654 5656 5656 5656 5657 5657 5657 5657 5655 5653 5651 5649 5645 5644 5643 5638 5635 5635 5635 5633 5631 5629 5628 5627 5626 5626
5625 5627 5630 5630 5632 5634 5636 5639 5641 5643 5645 5646 5647 5648 5648 5648 5649 5650 5650 5651 5652 5652 5649 5648 5646 5644 5642 5638 5634 5631 5631 5631 5630 5629 5627 5623 5622 5621
5624 5624 5625 5626 5628 5630 5632 5633 5636 5638 5639 5639 5640 5641 5641 5642 5642 5642 5642 5642 5642 5642 5642 5643 5643 5641 5642 5640 5637 5632 5629 5628 5628 5627 5626 5624 5623 5621
5625 5624 5623 5623 5625 5626 5628 5630 5631 5633 5634 5633 5633 5633 5633 5634 5635 5635 5635 5634 5633 5632 5634 5636 5637 5637 5637 5637 5635 5632 5630 5629 5626 5625 5624 5624 5623 5622
5624 5626 5625 5625 5624 5624 5625 5625 5626 5627 5627 5627 5627 5627 5627 5628 5629 5630 5631 5631 5631 5628 5626 5627 5629 5630 5631 5631 5630 5630 5629 5628 5626 5624 5622 5622 5623 5622
5623 5626 5626 5625 5623 5623 5623 5623 5623 5623 5624 5624 5624 5624 5624 5625 5625 5625 5626 5628 5628 5627 5625 5623 5623 5623 5622 5623 5625 5627 5627 5626 5625 5622 5622 5621 5623 5623
5625 5627 5627 5626 5625 5624 5623 5622 5622 5622 5622 5622 5622 5622 5623 5623 5622 5622 5623 5624 5624 5624 5623 5622 5623 5624 5624 5624 5622 5621 5625 5625 5622 5621 5620 5621 5622 5624
5629 5629 5629 5628 5626 5626 5625 5624 5623 5622 5622 5622 5622 5622 5622 5622 5621 5621 5622 5622 5621 5620 5620 5620 5622 5624 5626 5628 5626 5621 5619 5622 5621 5621 5621 5620 5620 5618
5634 5633 5631 5630 5629 5628 5627 5626 5625 5624 5623 5623 5623 5621 5622 5621 5621 5621 5621 5617 5620 5620 5619 5619 5620 5619 5622 5622 5622 5621 5619 5616 5618 5620 5621 5620 5619 5619
5636 5635 5633 5632 5631 5630 5628 5627 5626 5625 5623 5623 5623 5622 5622 5622 5621 5620 5620 5618 5619 5620 5620 5618 5614 5614 5617 5618 5621 5622 5619 5615 5613 5612 5613 5615 5619 5620
5638 5637 5635 5633 5632 5631 5630 5628 5627 5626 5625 5624 5623 5622 5622 5621 5621 5620 5620 5619 5619 5619 5618 5615 5614 5614 5616 5617 5618 5620 5620 5617 5616 5613 5614 5613 5612 5611